Weather History for Detroit, MI

Change the Weather History Date:

Thursday, January 3, 2013

  Actual Average Record
Temperature  
Mean Temperature 24 °F -  
Max Temperature 30 °F 30 °F 59 °F (1950)
Min Temperature 17 °F 20 °F -2 °F (1979)
Degree Days  
Heating Degree Days 42    
Moisture  
Dew Point 16 °F    
Average Humidity 72    
Maximum Humidity 82    
Minimum Humidity 59    
Precipitation  
Precipitation 0.00 in - - ()
Sea Level Pressure  
Sea Level Pressure 30.13 in    
Wind  
Wind Speed 10 mph (WSW)    
Max Wind Speed 14 mph    
Max Gust Speed 23 mph    
Visibility 9 miles    
Events      
Averages and records for this station are not official NWS values.
T = Trace of Precipitation, MM = Missing Value Source: NWS Daily Summary

Daily Weather History Graph

Daily Weather History Graph

Search for Another Location

Airport:

Trip Planner

Search our weather history database for the weather conditions in past years. The results will help you decide how hot, cold, wet, or windy it might be!

Date:

Astronomy

Jan. 03, 2013 Rise Set
Actual Time 8:01 AM EST 5:12 PM EST
Civil Twilight 7:29 AM EST 5:43 PM EST
Nautical Twilight 6:54 AM EST 6:19 PM EST
Astronomical Twilight 6:20 AM EST 6:53 PM EST
Moon 11:55 PM EST (1/3) 11:04 AM EST (1/3)
Length of Visible Light 10h 14m
Length of Day
9h 10m
Waning Gibbous, 65% of the Moon is Illuminated
Jan 3
Waning Gibbous
Jan 4
Last Quarter
Jan 11
New
Jan 18
First Quarter
Jan 26
Full

Hourly Weather History & Observations

Time (EST) Temp. Windchill Dew Point Humidity Pressure Visibility Wind Dir Wind Speed Gust Speed Precip Events Conditions
12:53 AM 23.0 °F 12.4 °F 17.1 °F 78% 30.19 in 10.0 mi WSW 10.4 mph - N/A   Overcast
1:53 AM 21.9 °F 12.5 °F 16.0 °F 78% 30.18 in 10.0 mi SW 8.1 mph - N/A   Overcast
2:31 AM 21.2 °F 11.7 °F 15.8 °F 80% 30.15 in 10.0 mi WSW 8.1 mph - N/A   Scattered Clouds
2:53 AM 21.0 °F 10.6 °F 15.1 °F 78% 30.19 in 10.0 mi West 9.2 mph - N/A   Partly Cloudy
3:53 AM 19.9 °F 10.1 °F 10.9 °F 68% 30.17 in 10.0 mi SSW 8.1 mph - N/A   Overcast
4:53 AM 18.0 °F 6.9 °F 7.0 °F 62% 30.15 in 10.0 mi SW 9.2 mph - N/A   Clear
5:53 AM 19.0 °F 8.2 °F 7.0 °F 59% 30.14 in 10.0 mi SW 9.2 mph - N/A   Overcast
6:53 AM 18.0 °F 6.9 °F 6.1 °F 60% 30.13 in 10.0 mi WSW 9.2 mph - N/A   Overcast
7:53 AM 18.0 °F 4.8 °F 7.0 °F 62% 30.12 in 10.0 mi SW 12.7 mph - N/A   Overcast
8:53 AM 17.1 °F 4.3 °F 8.1 °F 68% 30.12 in 10.0 mi SW 11.5 mph - N/A   Overcast
9:53 AM 18.0 °F 6.1 °F 8.1 °F 65% 30.13 in 9.0 mi WSW 10.4 mph - N/A   Overcast
10:53 AM 19.0 °F 8.2 °F 10.0 °F 68% 30.13 in 9.0 mi WSW 9.2 mph - N/A   Overcast
11:49 AM 21.2 °F 10.9 °F 12.2 °F 68% 30.08 in 9.0 mi WSW 9.2 mph - N/A   Overcast
11:53 AM 21.0 °F 9.3 °F 12.9 °F 71% 30.11 in 9.0 mi WSW 11.5 mph - N/A   Overcast
12:53 PM 23.0 °F 11.7 °F 15.1 °F 72% 30.09 in 9.0 mi WSW 11.5 mph - N/A   Overcast
1:03 PM 24.8 °F 13.4 °F 15.8 °F 69% 30.05 in 8.0 mi WSW 12.7 mph - N/A   Overcast
1:53 PM 25.0 °F 14.2 °F 17.1 °F 72% 30.07 in 8.0 mi WSW 11.5 mph - N/A   Overcast
2:53 PM 26.1 °F 14.5 °F 19.0 °F 75% 30.08 in 8.0 mi WSW 13.8 mph 21.9 mph N/A   Overcast
3:53 PM 27.0 °F 15.6 °F 21.0 °F 78% 30.09 in 7.0 mi WSW 13.8 mph - N/A   Overcast
4:53 PM 28.0 °F 18.6 °F 21.9 °F 78% 30.12 in 6.0 mi WSW 10.4 mph - N/A   Haze
5:05 PM 28.4 °F 19.7 °F 21.2 °F 74% 30.09 in 6.0 mi WSW 9.2 mph - N/A   Haze
5:53 PM 28.9 °F 21.1 °F 23.0 °F 78% 30.13 in 7.0 mi WSW 8.1 mph - N/A   Overcast
6:53 PM 30.0 °F 22.4 °F 24.1 °F 79% 30.15 in 6.0 mi West 8.1 mph 17.3 mph N/A   Haze
7:53 PM 30.0 °F 20.5 °F 25.0 °F 82% 30.16 in 7.0 mi West 11.5 mph 19.6 mph N/A   Overcast
8:53 PM 30.0 °F 21.7 °F 24.1 °F 79% 30.17 in 7.0 mi West 9.2 mph - N/A   Overcast
9:53 PM 30.0 °F 21.7 °F 23.0 °F 75% 30.17 in 8.0 mi West 9.2 mph - N/A   Overcast
10:53 PM 30.0 °F 21.1 °F 21.0 °F 69% 30.19 in 10.0 mi West 10.4 mph 23.0 mph N/A   Overcast
11:53 PM 28.9 °F 21.9 °F 19.9 °F 69% 30.18 in 10.0 mi West 6.9 mph - N/A   Overcast